Location: McFarlands Corners
(41.4117°N, 81.3382°W)
Time: 08:15:48
(UTC+00:00)

Vanguard 1 Rocket - Pass Details

Date: 24 February 2026
Orbit: 653 x 4214 km, 34.3° (Epoch: 12 March)

Event Time Altitude Azimuth Distance (km) Brightness Sun altitude
Rises 16:26:32 0° 222° (SW) 3,320 10.6 36.7°
Reaches altitude 10° 16:28:48 10° 211° (SSW) 2,604 10.3 36.8°
Maximum altitude 16:34:15 33° 148° (SSE) 1,981 11.5 37.2°
Drops below altitude 10° 16:43:19 10° 90° (E) 4,398 11.2 37.7°
Sets 16:48:28 0° 83° (E) 6,038 11.7 38.0°
